Minneapolis Flying Cloud, MN

5:42 PM CST on November 20, 2017 (GMT -0600)
Flying Cloud

Weather History for KFCM - January, 2013

Change the Weather History Date:

Tuesday, January 15, 2013

  Actual Average Record
Temperature  
Mean Temperature 20 °F -  
Max Temperature 30 °F 21 °F 43 °F (2012)
Min Temperature 9 °F 6 °F -27 °F (2009)
Degree Days  
Heating Degree Days 46    
Moisture  
Dew Point 11 °F    
Average Humidity 69    
Maximum Humidity 84    
Minimum Humidity 53    
Precipitation  
Precipitation 0.00 in - - ()
Sea Level Pressure  
Sea Level Pressure 30.17 in    
Wind  
Wind Speed 8 mph (SSW)    
Max Wind Speed 16 mph    
Max Gust Speed 21 mph    
Visibility 10 miles    
Events      
Averages and records for this station are not official NWS values.
T = Trace of Precipitation, MM = Missing Value Source: NWS Daily Summary

Daily Weather History Graph

Daily Weather History Graph

Search for Another Location

Airport or City:

Trip Planner

Search our weather history database for the weather conditions in past years. The results will help you decide how hot, cold, wet, or windy it might be!

Date:

Astronomy

Jan. 15, 2013 Rise Set
Actual Time 7:47 AM CST 4:59 PM CST
Civil Twilight 7:15 AM CST 5:32 PM CST
Nautical Twilight 6:38 AM CST 6:08 PM CST
Astronomical Twilight 6:03 AM CST 6:43 PM CST
Moon 9:40 AM CST (1/15) 10:04 PM CST (1/15)
Length of Visible Light 10h 16m
Length of Day
9h 11m
Waxing Crescent, 19% of the Moon is Illuminated
Jan 15
Waxing Crescent
Jan 18
First Quarter
Jan 26
Full
Feb 3
Last Quarter
Feb 10
New

Hourly Weather History & Observations

Time (CST) Temp. Windchill Dew Point Humidity Pressure Visibility Wind Dir Wind Speed Gust Speed Precip Events Conditions
12:53 AM 12.0 °F 1.5 °F 7.0 °F 80% 30.30 in 10.0 mi SSW 6.9 mph - N/A   Clear
1:53 AM 12.9 °F 1.6 °F 7.0 °F 77% 30.31 in 10.0 mi SW 8.1 mph - N/A   Clear
2:53 AM 12.9 °F 2.6 °F 8.1 °F 81% 30.31 in 10.0 mi WSW 6.9 mph - N/A   Clear
3:53 AM 12.9 °F 5.2 °F 7.0 °F 77% 30.30 in 10.0 mi WSW 4.6 mph - N/A   Clear
4:53 AM 12.0 °F 5.9 °F 7.0 °F 80% 30.28 in 10.0 mi WSW 3.5 mph - N/A   Clear
5:53 AM 12.0 °F - 6.1 °F 77% 30.27 in 10.0 mi Calm Calm - N/A   Clear
6:53 AM 10.9 °F 4.7 °F 7.0 °F 84% 30.27 in 10.0 mi SSW 3.5 mph - N/A   Clear
7:53 AM 9.0 °F 0.6 °F 5.0 °F 84% 30.28 in 10.0 mi South 4.6 mph - N/A   Clear
8:53 AM 12.9 °F 5.2 °F 8.1 °F 81% 30.28 in 10.0 mi SSW 4.6 mph - N/A   Clear
9:53 AM 16.0 °F 7.4 °F 10.0 °F 77% 30.27 in 10.0 mi SSW 5.8 mph - N/A   Clear
10:53 AM 21.0 °F 9.9 °F 12.0 °F 68% 30.24 in 10.0 mi South 10.4 mph - N/A   Clear
11:53 AM 25.0 °F 15.5 °F 12.0 °F 58% 30.20 in 10.0 mi SSW 9.2 mph - N/A   Clear
12:53 PM 27.0 °F 15.2 °F 12.0 °F 53% 30.16 in 10.0 mi SSW 15.0 mph - N/A   Clear
1:53 PM 28.9 °F 17.7 °F 14.0 °F 54% 30.13 in 10.0 mi SSW 15.0 mph 20.7 mph N/A   Clear
2:53 PM 30.0 °F 18.7 °F 16.0 °F 56% 30.12 in 10.0 mi SSW 16.1 mph - N/A   Clear
3:53 PM 30.0 °F 21.1 °F 17.1 °F 59% 30.09 in 10.0 mi SSW 10.4 mph 19.6 mph N/A   Clear
4:53 PM 28.9 °F 19.2 °F 14.0 °F 54% 30.09 in 10.0 mi SW 11.5 mph - N/A   Clear
5:53 PM 27.0 °F 19.5 °F 12.9 °F 56% 30.07 in 10.0 mi SSW 6.9 mph - N/A   Clear
6:53 PM 25.0 °F 15.5 °F 12.9 °F 60% 30.04 in 10.0 mi South 9.2 mph - N/A   Clear
7:53 PM 26.1 °F 14.5 °F 16.0 °F 66% 30.01 in 10.0 mi SSW 13.8 mph - N/A   Clear
8:53 PM 25.0 °F 13.1 °F 16.0 °F 69% 29.97 in 10.0 mi SSW 13.8 mph - N/A   Clear
9:53 PM 24.1 °F 13.1 °F 16.0 °F 71% 29.93 in 10.0 mi SSW 11.5 mph - N/A   Clear
10:53 PM 24.1 °F 12.5 °F 16.0 °F 71% 29.89 in 10.0 mi SSW 12.7 mph - N/A   Clear